CFG9PZ HEGN-EDDF

Flight info

Callsign CFG9PZ
Flight time 4h 44m
Altitude 32000
Route BOTIX1B BOTIX V608 NABED T55 TANSA DCT EVIVI DCT OKANA DCT NIVIS DCT BABIT DCT ARSIN DCT BUDEX DCT IPDUL DCT RAPET T170 GAPLA T178 KERAX KERAX5D
Aircraft A321/M-SDE3FGHIRWY/LB1

Departure

Time 2026-04-14 10:56
Airport Hurghada International Airport (HEGN)

Arrival

Time 2026-04-14 15:40
Airport Frankfurt Main Airport (EDDF)
Time Latitude Longitude Altitude Speed Heading
2026-04-14 10:15 27.18069 33.80584 55 ft 0 kts 65°
2026-04-14 10:47 27.18062 33.80565 50 ft 4 kts 68°
2026-04-14 10:47 27.18052 33.80536 51 ft 4 kts 73°
2026-04-14 10:48 27.18046 33.80507 52 ft 4 kts 82°
2026-04-14 10:48 27.18045 33.80478 54 ft 4 kts 110°
2026-04-14 10:48 27.18055 33.80462 52 ft 1 kts 166°
2026-04-14 10:48 27.18059 33.80461 52 ft 0 kts 166°
2026-04-14 10:50 27.18047 33.80465 53 ft 5 kts 166°
2026-04-14 10:50 27.17979 33.80484 57 ft 12 kts 166°
2026-04-14 10:51 27.17903 33.80505 53 ft 10 kts 170°
2026-04-14 10:51 27.17848 33.80469 50 ft 12 kts 243°
2026-04-14 10:51 27.17822 33.80361 55 ft 15 kts 256°
2026-04-14 10:51 27.17747 33.80303 54 ft 14 kts 171°
2026-04-14 10:52 27.17658 33.80329 55 ft 15 kts 165°
2026-04-14 10:52 27.17529 33.80368 53 ft 20 kts 165°
2026-04-14 10:52 27.17395 33.80407 51 ft 19 kts 165°
2026-04-14 10:52 27.17266 33.80445 49 ft 21 kts 165°
2026-04-14 10:53 27.17105 33.80493 50 ft 24 kts 165°
2026-04-14 10:53 27.16951 33.80538 51 ft 22 kts 165°
2026-04-14 10:53 27.16806 33.80581 46 ft 22 kts 165°
2026-04-14 10:53 27.16664 33.80624 48 ft 20 kts 165°
2026-04-14 10:54 27.16538 33.80661 48 ft 18 kts 165°
2026-04-14 10:54 27.16418 33.80697 46 ft 18 kts 165°
2026-04-14 10:54 27.16301 33.80731 42 ft 17 kts 165°
2026-04-14 10:54 27.16194 33.80762 41 ft 15 kts 172°
2026-04-14 10:55 27.16138 33.80687 41 ft 13 kts 254°
2026-04-14 10:55 27.16151 33.80613 43 ft 9 kts 317°
2026-04-14 10:55 27.16215 33.80582 42 ft 16 kts 344°
2026-04-14 10:55 27.16440 33.80517 44 ft 60 kts 345°
2026-04-14 10:56 27.17042 33.80340 46 ft 116 kts 345°
2026-04-14 10:56 27.17973 33.80063 52 ft 160 kts 345°
2026-04-14 10:56 27.19137 33.79711 317 ft 172 kts 344°
2026-04-14 10:56 27.20246 33.79346 1031 ft 166 kts 344°
2026-04-14 10:57 27.21367 33.78968 1368 ft 174 kts 345°
2026-04-14 10:57 27.22595 33.78560 1503 ft 193 kts 345°
2026-04-14 10:57 27.23941 33.78115 1639 ft 209 kts 344°
2026-04-14 10:57 27.25392 33.77637 1755 ft 227 kts 346°
2026-04-14 10:58 27.26985 33.77115 1924 ft 250 kts 346°
2026-04-14 10:58 27.28695 33.76557 2400 ft 260 kts 346°
2026-04-14 10:58 27.30447 33.75988 2995 ft 265 kts 346°
2026-04-14 10:58 27.32182 33.75228 3478 ft 274 kts 326°
2026-04-14 10:59 27.33396 33.73571 3942 ft 282 kts 290°
2026-04-14 10:59 27.33638 33.71400 4453 ft 284 kts 263°
2026-04-14 10:59 27.33477 33.69188 5072 ft 284 kts 265°
2026-04-14 10:59 27.33423 33.66963 5695 ft 286 kts 267°
2026-04-14 11:00 27.33413 33.64723 6284 ft 287 kts 267°
2026-04-14 11:00 27.33409 33.62474 6841 ft 288 kts 267°
2026-04-14 11:00 27.33395 33.60215 7369 ft 290 kts 267°
2026-04-14 11:00 27.33368 33.57942 7918 ft 292 kts 267°
2026-04-14 11:01 27.33331 33.55655 8457 ft 294 kts 267°
2026-04-14 11:01 27.33286 33.53351 8995 ft 296 kts 266°
2026-04-14 11:01 27.33237 33.51029 9525 ft 299 kts 267°
2026-04-14 11:01 27.33183 33.48680 10003 ft 303 kts 267°
2026-04-14 11:02 27.33128 33.46275 10254 ft 315 kts 268°
2026-04-14 11:02 27.33070 33.43752 10376 ft 330 kts 267°
2026-04-14 11:02 27.33011 33.41112 10497 ft 345 kts 268°
2026-04-14 11:02 27.32952 33.38355 10617 ft 360 kts 268°
2026-04-14 11:03 27.32889 33.35490 10730 ft 373 kts 268°
2026-04-14 11:03 27.32822 33.32520 10851 ft 386 kts 268°
2026-04-14 11:03 27.32750 33.29461 10984 ft 396 kts 268°
2026-04-14 11:03 27.32678 33.26345 11273 ft 401 kts 268°
2026-04-14 11:04 27.32604 33.23201 11650 ft 403 kts 268°
2026-04-14 11:04 27.32529 33.20044 12029 ft 405 kts 269°
2026-04-14 11:04 27.32452 33.16875 12426 ft 406 kts 269°
2026-04-14 11:04 27.32376 33.13699 12796 ft 407 kts 269°
2026-04-14 11:05 27.32298 33.10509 13134 ft 409 kts 269°
2026-04-14 11:05 27.32217 33.07312 13458 ft 410 kts 269°
2026-04-14 11:05 27.32136 33.04103 13776 ft 411 kts 269°
2026-04-14 11:05 27.32054 33.00883 14054 ft 412 kts 269°
2026-04-14 11:06 27.31969 32.97654 14324 ft 414 kts 269°
2026-04-14 11:06 27.31886 32.94421 14624 ft 414 kts 269°
2026-04-14 11:06 27.31804 32.91184 14918 ft 414 kts 270°
2026-04-14 11:06 27.31723 32.87949 15222 ft 414 kts 269°
2026-04-14 11:07 27.31638 32.84704 15483 ft 416 kts 269°
2026-04-14 11:07 27.31549 32.81446 15734 ft 417 kts 269°
2026-04-14 11:07 27.31459 32.78181 16018 ft 418 kts 269°
2026-04-14 11:07 27.31368 32.74909 16312 ft 419 kts 269°
2026-04-14 11:08 27.31279 32.71629 16587 ft 420 kts 269°
2026-04-14 11:08 27.31190 32.68340 16878 ft 422 kts 269°
2026-04-14 11:08 27.31100 32.65042 17161 ft 423 kts 269°
2026-04-14 11:08 27.31008 32.61733 17460 ft 424 kts 269°
2026-04-14 11:09 27.30917 32.58420 17778 ft 425 kts 269°
2026-04-14 11:09 27.30825 32.55100 18080 ft 426 kts 269°
2026-04-14 11:09 27.30729 32.51767 18378 ft 427 kts 269°
2026-04-14 11:10 27.30528 32.45084 18921 ft 429 kts 269°
2026-04-14 11:10 27.30427 32.41729 19195 ft 430 kts 269°
2026-04-14 11:10 27.30326 32.38367 19469 ft 431 kts 269°
2026-04-14 11:10 27.30226 32.34996 19732 ft 432 kts 270°
2026-04-14 11:11 27.30419 32.31631 19989 ft 432 kts 280°
2026-04-14 11:11 27.31158 32.28365 20249 ft 432 kts 290°
2026-04-14 11:11 27.32416 32.25295 20499 ft 433 kts 300°
2026-04-14 11:11 27.34135 32.22509 20769 ft 435 kts 307°
2026-04-14 11:12 27.35989 32.19816 21034 ft 436 kts 307°
2026-04-14 11:12 27.37848 32.17113 21295 ft 438 kts 307°
2026-04-14 11:12 27.39712 32.14398 21561 ft 439 kts 307°
2026-04-14 11:12 27.41579 32.11675 21831 ft 440 kts 307°
2026-04-14 11:13 27.43447 32.08944 22091 ft 441 kts 307°
2026-04-14 11:13 27.45294 32.06239 22355 ft 443 kts 307°
2026-04-14 11:13 27.47200 32.03448 22610 ft 444 kts 307°
2026-04-14 11:13 27.49060 32.00724 22865 ft 446 kts 307°
2026-04-14 11:14 27.50952 31.97955 23111 ft 447 kts 307°
2026-04-14 11:14 27.52850 31.95176 23361 ft 448 kts 307°
2026-04-14 11:14 27.54753 31.92385 23591 ft 449 kts 307°
2026-04-14 11:14 27.56658 31.89589 23792 ft 450 kts 307°
2026-04-14 11:15 27.58564 31.86787 23980 ft 451 kts 307°
2026-04-14 11:15 27.60467 31.83981 24184 ft 451 kts 307°
2026-04-14 11:15 27.62372 31.81170 24371 ft 451 kts 307°
2026-04-14 11:15 27.64278 31.78359 24561 ft 451 kts 307°
2026-04-14 11:16 27.66187 31.75547 24737 ft 452 kts 307°
2026-04-14 11:16 27.68095 31.72736 24979 ft 450 kts 307°
2026-04-14 11:16 27.69996 31.69939 25231 ft 448 kts 307°
2026-04-14 11:16 27.71887 31.67152 25481 ft 446 kts 307°
2026-04-14 11:17 27.73771 31.64374 25731 ft 445 kts 307°
2026-04-14 11:17 27.75644 31.61603 25990 ft 443 kts 307°
2026-04-14 11:17 27.77506 31.58843 26237 ft 441 kts 307°
2026-04-14 11:17 27.79363 31.56092 26483 ft 440 kts 307°
2026-04-14 11:18 27.81215 31.53350 26721 ft 438 kts 307°
2026-04-14 11:18 27.83059 31.50620 26971 ft 436 kts 307°
2026-04-14 11:18 27.84892 31.47898 27238 ft 434 kts 307°
2026-04-14 11:18 27.86715 31.45192 27499 ft 432 kts 307°
2026-04-14 11:19 27.88531 31.42499 27757 ft 430 kts 307°
2026-04-14 11:19 27.90343 31.39817 28007 ft 428 kts 307°
2026-04-14 11:19 27.92149 31.37142 28243 ft 427 kts 307°
2026-04-14 11:19 27.93946 31.34477 28484 ft 425 kts 307°
2026-04-14 11:20 27.95732 31.31820 28730 ft 423 kts 307°
2026-04-14 11:20 27.97508 31.29169 28963 ft 422 kts 307°
2026-04-14 11:20 27.99275 31.26528 29190 ft 420 kts 307°
2026-04-14 11:20 28.01034 31.23894 29426 ft 419 kts 307°
2026-04-14 11:21 28.02787 31.21271 29674 ft 417 kts 307°
2026-04-14 11:21 28.04533 31.18663 29915 ft 415 kts 307°
2026-04-14 11:21 28.06273 31.16069 30142 ft 413 kts 307°
2026-04-14 11:21 28.07987 31.13468 30336 ft 411 kts 306°
2026-04-14 11:22 28.09624 31.10814 30531 ft 410 kts 304°
2026-04-14 11:22 28.11201 31.08133 30712 ft 409 kts 303°
2026-04-14 11:22 28.12751 31.05439 30899 ft 407 kts 303°
2026-04-14 11:22 28.14291 31.02751 31084 ft 406 kts 303°
2026-04-14 11:23 28.15831 31.00077 31266 ft 405 kts 303°
2026-04-14 11:23 28.17379 30.97418 31448 ft 404 kts 304°
2026-04-14 11:23 28.18932 30.94777 31641 ft 402 kts 303°
2026-04-14 11:23 28.20485 30.92147 31836 ft 400 kts 303°
2026-04-14 11:24 28.22031 30.89532 32027 ft 399 kts 303°
2026-04-14 11:24 28.23574 30.86921 32218 ft 397 kts 303°
2026-04-14 11:24 28.25105 30.84321 32408 ft 396 kts 303°
2026-04-14 11:24 28.26629 30.81725 32597 ft 395 kts 303°
2026-04-14 11:25 28.28144 30.79137 32782 ft 393 kts 303°
2026-04-14 11:25 28.29656 30.76557 32971 ft 392 kts 303°
2026-04-14 11:25 28.31163 30.73986 33169 ft 390 kts 303°
2026-04-14 11:25 28.32663 30.71426 33373 ft 389 kts 303°
2026-04-14 11:26 28.34158 30.68876 33563 ft 387 kts 303°
2026-04-14 11:26 28.35645 30.66336 33745 ft 386 kts 303°
2026-04-14 11:26 28.37124 30.63805 33929 ft 384 kts 303°
2026-04-14 11:26 28.38100 30.62134 34033 ft 383 kts 303°
2026-04-14 11:27 28.41059 30.57071 34076 ft 386 kts 303°
2026-04-14 11:27 28.44024 30.51990 34076 ft 386 kts 303°
2026-04-14 11:28 28.46984 30.46905 34081 ft 386 kts 303°
2026-04-14 11:28 28.49941 30.41819 34082 ft 386 kts 303°
2026-04-14 11:29 28.52898 30.36728 34077 ft 386 kts 302°
2026-04-14 11:29 28.55856 30.31629 34082 ft 386 kts 302°
2026-04-14 11:30 28.58814 30.26526 34082 ft 386 kts 302°
2026-04-14 11:30 28.61771 30.21420 34086 ft 387 kts 302°
2026-04-14 11:31 28.64732 30.16311 34087 ft 387 kts 302°
2026-04-14 11:31 28.67692 30.11197 34085 ft 387 kts 302°
2026-04-14 11:32 28.70648 30.06074 34080 ft 387 kts 302°
2026-04-14 11:32 28.73603 30.00932 34075 ft 388 kts 302°
2026-04-14 11:33 28.76568 29.95785 34091 ft 389 kts 302°
2026-04-14 11:34 28.81013 29.88060 34086 ft 388 kts 302°
2026-04-14 11:34 28.83963 29.82897 34084 ft 388 kts 302°
2026-04-14 11:35 28.86925 29.77729 34073 ft 389 kts 301°
2026-04-14 11:35 28.89895 29.72550 34070 ft 390 kts 301°
2026-04-14 11:36 28.92863 29.67354 34074 ft 391 kts 301°
2026-04-14 11:36 28.95836 29.62147 34069 ft 391 kts 301°
2026-04-14 11:37 28.98810 29.56938 34069 ft 392 kts 301°
2026-04-14 11:37 29.01784 29.51718 34073 ft 392 kts 300°
2026-04-14 11:38 29.04763 29.46482 34052 ft 394 kts 300°
2026-04-14 11:38 29.07750 29.41226 34053 ft 395 kts 300°
2026-04-14 11:39 29.10781 29.35985 34054 ft 397 kts 304°
2026-04-14 11:39 29.14908 29.31725 34068 ft 409 kts 324°
2026-04-14 11:40 29.20056 29.28830 34080 ft 413 kts 328°
2026-04-14 11:40 29.25236 29.25982 34072 ft 413 kts 328°
2026-04-14 11:41 29.30412 29.23115 34059 ft 414 kts 327°
2026-04-14 11:41 29.35607 29.20236 34053 ft 416 kts 327°
2026-04-14 11:42 29.40830 29.17353 34060 ft 417 kts 327°
2026-04-14 11:42 29.46063 29.14464 34081 ft 418 kts 327°
2026-04-14 11:43 29.51301 29.11566 34086 ft 418 kts 327°
2026-04-14 11:43 29.56500 29.08688 34087 ft 417 kts 327°
2026-04-14 11:44 29.61763 29.05771 34091 ft 417 kts 327°
2026-04-14 11:44 29.66957 29.02891 34089 ft 417 kts 327°
2026-04-14 11:45 29.72180 28.99982 34082 ft 417 kts 327°
2026-04-14 11:45 29.77402 28.97068 34095 ft 417 kts 328°
2026-04-14 11:46 29.82632 28.94157 34091 ft 418 kts 328°
2026-04-14 11:46 29.87872 28.91232 34079 ft 419 kts 328°
2026-04-14 11:47 29.93120 28.88290 34072 ft 420 kts 328°
2026-04-14 11:47 29.98382 28.85349 34071 ft 420 kts 328°
2026-04-14 11:48 30.03650 28.82401 34075 ft 421 kts 328°
2026-04-14 11:48 30.08916 28.79447 34078 ft 421 kts 328°
2026-04-14 11:49 30.14187 28.76489 34083 ft 421 kts 328°
2026-04-14 11:49 30.19461 28.73530 34084 ft 421 kts 328°
2026-04-14 11:50 30.24732 28.70562 34084 ft 421 kts 328°
2026-04-14 11:50 30.30005 28.67592 34084 ft 422 kts 327°
2026-04-14 11:51 30.37916 28.63122 34098 ft 422 kts 327°
2026-04-14 11:51 30.43201 28.60143 34092 ft 422 kts 327°
2026-04-14 11:52 30.48483 28.57151 34095 ft 423 kts 327°
2026-04-14 11:52 30.53766 28.54158 34093 ft 423 kts 327°
2026-04-14 11:53 30.59049 28.51160 34096 ft 423 kts 327°
2026-04-14 11:53 30.64333 28.48156 34113 ft 423 kts 327°
2026-04-14 11:54 30.69652 28.45130 34123 ft 423 kts 327°
2026-04-14 11:54 30.74895 28.42144 34118 ft 422 kts 327°
2026-04-14 11:55 30.80207 28.39113 34120 ft 422 kts 327°
2026-04-14 11:55 30.85480 28.36100 34121 ft 423 kts 327°
2026-04-14 11:56 30.90769 28.33079 34114 ft 424 kts 327°
2026-04-14 11:56 30.96073 28.30045 34113 ft 425 kts 326°
2026-04-14 11:57 31.01341 28.27030 34116 ft 425 kts 326°
2026-04-14 11:57 31.06684 28.23968 34119 ft 425 kts 326°
2026-04-14 11:58 31.11954 28.20939 34117 ft 425 kts 326°
2026-04-14 11:58 31.17263 28.17894 34123 ft 425 kts 326°
2026-04-14 11:59 31.22572 28.14839 34139 ft 425 kts 326°
2026-04-14 11:59 31.27868 28.11775 34139 ft 425 kts 326°
2026-04-14 12:00 31.33171 28.08720 34141 ft 425 kts 326°
2026-04-14 12:00 31.38468 28.05660 34145 ft 425 kts 326°
2026-04-14 12:01 31.43774 28.02588 34125 ft 426 kts 326°
2026-04-14 12:01 31.49090 27.99509 34143 ft 427 kts 327°
2026-04-14 12:02 31.54667 27.96918 34145 ft 431 kts 330°
2026-04-14 12:02 31.60255 27.94382 34152 ft 431 kts 330°
2026-04-14 12:03 31.65842 27.91846 34146 ft 430 kts 330°
2026-04-14 12:03 31.71427 27.89307 34150 ft 430 kts 330°
2026-04-14 12:04 31.77006 27.86762 34171 ft 430 kts 330°
2026-04-14 12:04 31.82580 27.84220 34174 ft 429 kts 330°
2026-04-14 12:05 31.88140 27.81681 34162 ft 428 kts 330°
2026-04-14 12:05 31.93691 27.79138 34167 ft 428 kts 330°
2026-04-14 12:06 31.99230 27.76581 34164 ft 428 kts 330°
2026-04-14 12:06 32.04772 27.74029 34177 ft 428 kts 330°
2026-04-14 12:07 32.10318 27.71477 34168 ft 428 kts 330°
2026-04-14 12:07 32.15864 27.68918 34162 ft 428 kts 330°
2026-04-14 12:08 32.21416 27.66355 34159 ft 428 kts 330°
2026-04-14 12:08 32.26967 27.63795 34158 ft 428 kts 330°
2026-04-14 12:09 32.31576 27.61661 34178 ft 428 kts 330°
2026-04-14 12:09 32.37116 27.59082 34171 ft 428 kts 330°
2026-04-14 12:10 32.42654 27.56509 34162 ft 428 kts 330°
2026-04-14 12:10 32.48193 27.53930 34164 ft 428 kts 330°
2026-04-14 12:11 32.53733 27.51349 34166 ft 428 kts 330°
2026-04-14 12:11 32.59271 27.48760 34185 ft 428 kts 330°
2026-04-14 12:12 32.64805 27.46171 34179 ft 427 kts 330°
2026-04-14 12:12 32.70337 27.43582 34173 ft 428 kts 330°
2026-04-14 12:13 32.75877 27.40992 34165 ft 428 kts 330°
2026-04-14 12:13 32.81411 27.38390 34167 ft 428 kts 330°
2026-04-14 12:14 32.86943 27.35775 34159 ft 428 kts 330°
2026-04-14 12:14 32.92478 27.33161 34163 ft 428 kts 330°
2026-04-14 12:15 32.98015 27.30547 34156 ft 428 kts 330°
2026-04-14 12:15 33.03554 27.27931 34157 ft 428 kts 330°
2026-04-14 12:16 33.09082 27.25300 34158 ft 428 kts 330°
2026-04-14 12:16 33.14608 27.22671 34183 ft 427 kts 330°
2026-04-14 12:17 33.20121 27.20058 34176 ft 426 kts 330°
2026-04-14 12:17 33.25616 27.17442 34175 ft 425 kts 329°
2026-04-14 12:18 33.31103 27.14821 34157 ft 425 kts 329°
2026-04-14 12:18 33.36601 27.12194 34153 ft 426 kts 329°
2026-04-14 12:19 33.42114 27.09563 34143 ft 427 kts 330°
2026-04-14 12:19 33.47643 27.06922 34137 ft 428 kts 330°
2026-04-14 12:20 33.53178 27.04268 34142 ft 429 kts 330°
2026-04-14 12:20 33.58721 27.01608 34145 ft 429 kts 330°
2026-04-14 12:21 33.64266 26.98936 34165 ft 430 kts 331°
2026-04-14 12:21 33.69822 26.96263 34153 ft 431 kts 331°
2026-04-14 12:22 33.75398 26.93582 34149 ft 432 kts 331°
2026-04-14 12:22 33.80980 26.90892 34147 ft 432 kts 331°
2026-04-14 12:23 33.86567 26.88188 34154 ft 433 kts 331°
2026-04-14 12:23 33.92152 26.85472 34171 ft 434 kts 331°
2026-04-14 12:24 33.97758 26.82766 34166 ft 434 kts 331°
2026-04-14 12:24 34.03397 26.80126 34164 ft 436 kts 334°
2026-04-14 12:25 34.09163 26.77785 34168 ft 438 kts 335°
2026-04-14 12:25 34.14964 26.75520 34170 ft 438 kts 335°
2026-04-14 12:26 34.20742 26.73193 34193 ft 437 kts 334°
2026-04-14 12:26 34.26476 26.70822 34198 ft 435 kts 334°
2026-04-14 12:27 34.32202 26.68444 34196 ft 435 kts 334°
2026-04-14 12:27 34.37880 26.66090 34193 ft 434 kts 334°
2026-04-14 12:28 34.43630 26.63708 34199 ft 434 kts 334°
2026-04-14 12:28 34.49306 26.61357 34192 ft 434 kts 334°
2026-04-14 12:29 34.55027 26.58987 34187 ft 434 kts 334°
2026-04-14 12:29 34.60743 26.56609 34183 ft 435 kts 334°
2026-04-14 12:30 34.66469 26.54236 34178 ft 435 kts 334°
2026-04-14 12:30 34.72203 26.51847 34184 ft 436 kts 333°
2026-04-14 12:31 34.77943 26.49451 34181 ft 436 kts 333°
2026-04-14 12:31 34.83679 26.47054 34180 ft 436 kts 333°
2026-04-14 12:32 34.89416 26.44651 34175 ft 436 kts 333°
2026-04-14 12:32 34.95151 26.42252 34202 ft 436 kts 332°
2026-04-14 12:33 35.00890 26.39852 34191 ft 436 kts 332°
2026-04-14 12:33 35.06629 26.37441 34179 ft 436 kts 332°
2026-04-14 12:34 35.12360 26.35017 34176 ft 436 kts 332°
2026-04-14 12:34 35.18091 26.32590 34168 ft 436 kts 332°
2026-04-14 12:35 35.23826 26.30163 34179 ft 436 kts 332°
2026-04-14 12:35 35.29559 26.27750 34178 ft 436 kts 332°
2026-04-14 12:36 35.35252 26.25346 34172 ft 435 kts 332°
2026-04-14 12:36 35.40975 26.22915 34163 ft 435 kts 332°
2026-04-14 12:37 35.46699 26.20480 34159 ft 435 kts 332°
2026-04-14 12:37 35.52422 26.18045 34157 ft 435 kts 332°
2026-04-14 12:38 35.61047 26.14361 34161 ft 436 kts 332°
2026-04-14 12:39 35.66776 26.11921 34150 ft 436 kts 332°
2026-04-14 12:39 35.72466 26.09486 34165 ft 436 kts 332°
2026-04-14 12:40 35.78234 26.07022 34156 ft 436 kts 332°
2026-04-14 12:40 35.83959 26.04569 34156 ft 436 kts 332°
2026-04-14 12:41 35.89678 26.02105 34163 ft 435 kts 332°
2026-04-14 12:41 35.95397 25.99634 34171 ft 435 kts 332°
2026-04-14 12:42 36.01085 25.97192 34157 ft 436 kts 332°
2026-04-14 12:42 36.06817 25.94721 34158 ft 436 kts 332°
2026-04-14 12:43 36.12550 25.92245 34150 ft 437 kts 332°
2026-04-14 12:43 36.18289 25.89762 34148 ft 437 kts 332°
2026-04-14 12:44 36.24029 25.87271 34156 ft 437 kts 332°
2026-04-14 12:44 36.29774 25.84771 34151 ft 438 kts 332°
2026-04-14 12:45 36.38402 25.81014 34147 ft 438 kts 332°
2026-04-14 12:45 36.44163 25.78508 34163 ft 439 kts 332°
2026-04-14 12:46 36.49928 25.75994 34158 ft 439 kts 332°
2026-04-14 12:46 36.55698 25.73470 34156 ft 440 kts 332°
2026-04-14 12:47 36.61479 25.70936 34157 ft 440 kts 332°
2026-04-14 12:47 36.67257 25.68396 34160 ft 441 kts 332°
2026-04-14 12:48 36.73043 25.65853 34180 ft 441 kts 332°
2026-04-14 12:48 36.78827 25.63305 34186 ft 441 kts 332°
2026-04-14 12:49 36.84613 25.60749 34186 ft 441 kts 332°
2026-04-14 12:49 36.90397 25.58193 34184 ft 441 kts 332°
2026-04-14 12:50 36.99082 25.54361 34178 ft 442 kts 332°
2026-04-14 12:51 37.04877 25.51791 34168 ft 442 kts 332°
2026-04-14 12:51 37.10676 25.49211 34169 ft 442 kts 332°
2026-04-14 12:52 37.16444 25.46643 34169 ft 443 kts 332°
2026-04-14 12:52 37.22246 25.44055 34169 ft 443 kts 332°
2026-04-14 12:53 37.28058 25.41462 34161 ft 444 kts 332°
2026-04-14 12:53 37.33878 25.38862 34156 ft 444 kts 332°
2026-04-14 12:54 37.38754 25.36677 34156 ft 444 kts 332°
2026-04-14 12:54 37.44579 25.34067 34175 ft 445 kts 333°
2026-04-14 12:55 37.50409 25.31452 34175 ft 445 kts 332°
2026-04-14 12:55 37.56239 25.28829 34162 ft 445 kts 332°
2026-04-14 12:56 37.62074 25.26207 34160 ft 445 kts 332°
2026-04-14 12:56 37.67912 25.23579 34181 ft 446 kts 332°
2026-04-14 12:57 37.73753 25.20930 34173 ft 446 kts 332°
2026-04-14 12:57 37.79601 25.18272 34171 ft 447 kts 332°
2026-04-14 12:58 37.85461 25.15615 34173 ft 447 kts 332°
2026-04-14 12:58 37.91323 25.12953 34174 ft 448 kts 332°
2026-04-14 12:59 37.97190 25.10280 34177 ft 448 kts 332°
2026-04-14 12:59 38.03061 25.07605 34180 ft 449 kts 332°
2026-04-14 13:00 38.08897 25.04943 34188 ft 449 kts 332°
2026-04-14 13:00 38.14775 25.02259 34208 ft 449 kts 331°
2026-04-14 13:01 38.20649 24.99568 34213 ft 449 kts 330°
2026-04-14 13:01 38.26533 24.96866 34201 ft 450 kts 330°
2026-04-14 13:02 38.32417 24.94161 34189 ft 450 kts 330°
2026-04-14 13:02 38.38300 24.91441 34193 ft 450 kts 330°
2026-04-14 13:03 38.44190 24.88725 34193 ft 450 kts 330°
2026-04-14 13:03 38.50078 24.86010 34189 ft 450 kts 330°
2026-04-14 13:04 38.55964 24.83289 34186 ft 450 kts 330°
2026-04-14 13:04 38.61847 24.80556 34204 ft 449 kts 330°
2026-04-14 13:05 38.67720 24.77821 34199 ft 449 kts 330°
2026-04-14 13:05 38.73586 24.75090 34190 ft 449 kts 330°
2026-04-14 13:06 38.79451 24.72357 34192 ft 448 kts 330°
2026-04-14 13:06 38.85314 24.69613 34193 ft 449 kts 330°
2026-04-14 13:07 38.91179 24.66865 34208 ft 448 kts 330°
2026-04-14 13:07 38.97036 24.64120 34201 ft 448 kts 330°
2026-04-14 13:08 39.02896 24.61376 34193 ft 448 kts 330°
2026-04-14 13:08 39.08754 24.58623 34189 ft 448 kts 330°
2026-04-14 13:09 39.14609 24.55859 34187 ft 448 kts 329°
2026-04-14 13:09 39.20467 24.53082 34179 ft 449 kts 329°
2026-04-14 13:10 39.26337 24.50311 34178 ft 449 kts 330°
2026-04-14 13:10 39.32205 24.47537 34196 ft 449 kts 330°
2026-04-14 13:11 39.38075 24.44755 34182 ft 449 kts 329°
2026-04-14 13:11 39.43946 24.41960 34177 ft 450 kts 329°
2026-04-14 13:12 39.49816 24.39152 34166 ft 450 kts 329°
2026-04-14 13:12 39.55690 24.36340 34190 ft 451 kts 329°
2026-04-14 13:13 39.61584 24.33526 34178 ft 452 kts 329°
2026-04-14 13:13 39.67488 24.30710 34178 ft 452 kts 329°
2026-04-14 13:14 39.73391 24.27878 34178 ft 452 kts 329°
2026-04-14 13:14 39.79300 24.25035 34203 ft 453 kts 329°
2026-04-14 13:15 39.85204 24.22192 34209 ft 452 kts 329°
2026-04-14 13:15 39.91107 24.19346 34208 ft 452 kts 328°
2026-04-14 13:16 39.97007 24.16495 34207 ft 452 kts 328°
2026-04-14 13:16 40.02901 24.13640 34223 ft 451 kts 328°
2026-04-14 13:17 40.08783 24.10787 34223 ft 450 kts 328°
2026-04-14 13:17 40.14641 24.07936 34220 ft 449 kts 328°
2026-04-14 13:18 40.20495 24.05083 34217 ft 449 kts 328°
2026-04-14 13:18 40.26356 24.02226 34208 ft 450 kts 328°
2026-04-14 13:19 40.32221 23.99355 34209 ft 450 kts 328°
2026-04-14 13:19 40.38084 23.96479 34206 ft 450 kts 328°
2026-04-14 13:20 40.43950 23.93601 34206 ft 450 kts 328°
2026-04-14 13:20 40.49810 23.90724 34224 ft 449 kts 328°
2026-04-14 13:21 40.55657 23.87848 34222 ft 448 kts 328°
2026-04-14 13:21 40.61494 23.84971 34222 ft 448 kts 328°
2026-04-14 13:22 40.67324 23.82091 34223 ft 447 kts 328°
2026-04-14 13:22 40.73151 23.79202 34236 ft 447 kts 328°
2026-04-14 13:23 40.78969 23.76320 34237 ft 447 kts 328°
2026-04-14 13:23 40.84783 23.73427 34242 ft 446 kts 327°
2026-04-14 13:24 40.90597 23.70527 34235 ft 447 kts 327°
2026-04-14 13:24 40.99325 23.66167 34231 ft 447 kts 327°
2026-04-14 13:25 41.05143 23.63259 34229 ft 447 kts 327°
2026-04-14 13:26 41.16740 23.57441 34232 ft 447 kts 328°
2026-04-14 13:26 41.22555 23.54518 34219 ft 447 kts 327°
2026-04-14 13:27 41.28364 23.51589 34216 ft 447 kts 327°
2026-04-14 13:27 41.34178 23.48650 34205 ft 447 kts 327°
2026-04-14 13:28 41.39980 23.45696 34219 ft 444 kts 326°
2026-04-14 13:28 41.45490 23.42181 34225 ft 438 kts 323°
2026-04-14 13:29 41.50966 23.38607 34207 ft 438 kts 323°
2026-04-14 13:29 41.56445 23.35027 34187 ft 439 kts 323°
2026-04-14 13:30 41.61928 23.31443 34194 ft 439 kts 324°
2026-04-14 13:30 41.67410 23.27853 34184 ft 439 kts 324°
2026-04-14 13:31 41.72888 23.24255 34187 ft 439 kts 324°
2026-04-14 13:31 41.78364 23.20647 34176 ft 439 kts 324°
2026-04-14 13:32 41.83839 23.17037 34190 ft 438 kts 326°
2026-04-14 13:32 41.89311 23.13425 34190 ft 438 kts 326°
2026-04-14 13:33 41.94775 23.09812 34196 ft 437 kts 326°
2026-04-14 13:33 42.00227 23.06192 34182 ft 437 kts 326°
2026-04-14 13:34 42.08404 23.00761 34170 ft 437 kts 326°
2026-04-14 13:35 42.13862 22.97129 34149 ft 438 kts 326°
2026-04-14 13:35 42.19324 22.93485 34143 ft 438 kts 326°
2026-04-14 13:36 42.24790 22.89828 34143 ft 439 kts 326°
2026-04-14 13:36 42.30253 22.86155 34152 ft 439 kts 327°
2026-04-14 13:37 42.35726 22.82471 34137 ft 440 kts 327°
2026-04-14 13:37 42.40280 22.79405 34125 ft 440 kts 327°
2026-04-14 13:38 42.45764 22.75715 34122 ft 440 kts 327°
2026-04-14 13:38 42.51254 22.72016 34114 ft 440 kts 327°
2026-04-14 13:39 42.56742 22.68305 34108 ft 441 kts 327°
2026-04-14 13:39 42.62231 22.64575 34111 ft 441 kts 327°
2026-04-14 13:40 42.67728 22.60841 34113 ft 441 kts 327°
2026-04-14 13:40 42.73224 22.57103 34122 ft 442 kts 327°
2026-04-14 13:41 42.78724 22.53361 34109 ft 442 kts 327°
2026-04-14 13:41 42.84191 22.49538 34104 ft 439 kts 322°
2026-04-14 13:42 42.89034 22.44625 34099 ft 433 kts 316°
2026-04-14 13:42 42.93784 22.39540 34087 ft 434 kts 316°
2026-04-14 13:43 42.98541 22.34452 34091 ft 435 kts 316°
2026-04-14 13:43 43.03301 22.29345 34081 ft 435 kts 316°
2026-04-14 13:44 43.08061 22.24226 34083 ft 436 kts 316°
2026-04-14 13:44 43.12827 22.19090 34085 ft 436 kts 316°
2026-04-14 13:45 43.17593 22.13944 34078 ft 436 kts 316°
2026-04-14 13:45 43.22357 22.08785 34102 ft 437 kts 316°
2026-04-14 13:46 43.27123 22.03610 34102 ft 437 kts 317°
2026-04-14 13:46 43.31883 21.98435 34104 ft 437 kts 316°
2026-04-14 13:47 43.36647 21.93246 34104 ft 437 kts 316°
2026-04-14 13:47 43.41412 21.88049 34101 ft 437 kts 316°
2026-04-14 13:48 43.46174 21.82843 34105 ft 437 kts 317°
2026-04-14 13:48 43.50933 21.77631 34105 ft 437 kts 317°
2026-04-14 13:49 43.55692 21.72404 34105 ft 437 kts 317°
2026-04-14 13:49 43.60417 21.67205 34112 ft 437 kts 317°
2026-04-14 13:50 43.65172 21.61960 34115 ft 438 kts 317°
2026-04-14 13:50 43.69930 21.56708 34119 ft 438 kts 317°
2026-04-14 13:51 43.74684 21.51442 34104 ft 438 kts 317°
2026-04-14 13:51 43.79441 21.46168 34103 ft 438 kts 317°
2026-04-14 13:52 43.84198 21.40883 34104 ft 439 kts 317°
2026-04-14 13:52 43.88959 21.35583 34094 ft 439 kts 317°
2026-04-14 13:53 43.93720 21.30266 34096 ft 440 kts 317°
2026-04-14 13:53 43.98482 21.24936 34093 ft 440 kts 317°
2026-04-14 13:54 44.03242 21.19586 34089 ft 440 kts 317°
2026-04-14 13:54 44.08004 21.14230 34087 ft 441 kts 318°
2026-04-14 13:55 44.12772 21.08860 34090 ft 441 kts 318°
2026-04-14 13:55 44.17543 21.03481 34094 ft 442 kts 318°
2026-04-14 13:56 44.22313 20.98090 34102 ft 442 kts 318°
2026-04-14 13:56 44.27058 20.92717 34211 ft 443 kts 319°
2026-04-14 13:56 44.29443 20.90010 34409 ft 442 kts 319°
2026-04-14 13:57 44.31825 20.87303 34582 ft 441 kts 319°
2026-04-14 13:57 44.34205 20.84593 34735 ft 441 kts 318°
2026-04-14 13:57 44.36580 20.81882 34894 ft 441 kts 318°
2026-04-14 13:57 44.38954 20.79170 35044 ft 441 kts 318°
2026-04-14 13:58 44.41327 20.76460 35190 ft 441 kts 318°
2026-04-14 13:58 44.43701 20.73746 35332 ft 440 kts 318°
2026-04-14 13:58 44.46070 20.71033 35480 ft 440 kts 318°
2026-04-14 13:58 44.48444 20.68317 35613 ft 440 kts 318°
2026-04-14 13:59 44.50810 20.65611 35816 ft 438 kts 318°
2026-04-14 13:59 44.53171 20.62908 35980 ft 438 kts 318°
2026-04-14 13:59 44.55525 20.60205 36082 ft 439 kts 318°
2026-04-14 14:00 44.60250 20.54765 36082 ft 440 kts 318°
2026-04-14 14:00 44.64967 20.49315 36083 ft 439 kts 318°
2026-04-14 14:01 44.69683 20.43874 36085 ft 439 kts 318°
2026-04-14 14:01 44.74398 20.38411 36084 ft 439 kts 318°
2026-04-14 14:02 44.79116 20.32938 36084 ft 440 kts 318°
2026-04-14 14:02 44.83834 20.27452 36083 ft 440 kts 318°
2026-04-14 14:03 44.88555 20.21956 36087 ft 440 kts 318°
2026-04-14 14:03 44.93275 20.16436 36090 ft 441 kts 318°
2026-04-14 14:04 44.97967 20.10941 36093 ft 441 kts 318°
2026-04-14 14:04 45.02689 20.05394 36114 ft 442 kts 318°
2026-04-14 14:05 45.07446 19.99791 36106 ft 442 kts 318°
2026-04-14 14:05 45.12140 19.94252 36112 ft 442 kts 318°
2026-04-14 14:06 45.16864 19.88666 36109 ft 442 kts 318°
2026-04-14 14:06 45.21588 19.83078 36109 ft 442 kts 318°
2026-04-14 14:07 45.26309 19.77479 36109 ft 442 kts 317°
2026-04-14 14:07 45.30943 19.71751 36105 ft 442 kts 316°
2026-04-14 14:08 45.35534 19.65949 36101 ft 442 kts 316°
2026-04-14 14:08 45.40134 19.60157 36100 ft 442 kts 316°
2026-04-14 14:09 45.44749 19.54378 36105 ft 442 kts 316°
2026-04-14 14:09 45.49365 19.48589 36109 ft 442 kts 316°
2026-04-14 14:10 45.53979 19.42792 36105 ft 442 kts 316°
2026-04-14 14:10 45.58593 19.36978 36102 ft 443 kts 316°
2026-04-14 14:11 45.63200 19.31143 36102 ft 443 kts 316°
2026-04-14 14:11 45.67805 19.25298 36103 ft 443 kts 316°
2026-04-14 14:12 45.72412 19.19444 36105 ft 443 kts 316°
2026-04-14 14:12 45.77023 19.13586 36110 ft 443 kts 316°
2026-04-14 14:13 45.81600 19.07748 36106 ft 444 kts 316°
2026-04-14 14:13 45.86207 19.01843 36104 ft 444 kts 316°
2026-04-14 14:14 45.90812 18.95927 36108 ft 445 kts 316°
2026-04-14 14:14 45.95423 18.89997 36111 ft 445 kts 316°
2026-04-14 14:15 46.00055 18.84088 36110 ft 445 kts 316°
2026-04-14 14:15 46.04692 18.78175 36106 ft 445 kts 316°
2026-04-14 14:16 46.09323 18.72246 36105 ft 446 kts 316°
2026-04-14 14:16 46.13953 18.66299 36104 ft 446 kts 316°
2026-04-14 14:17 46.20891 18.57344 36115 ft 447 kts 316°
2026-04-14 14:17 46.25517 18.51341 36115 ft 447 kts 316°
2026-04-14 14:18 46.30145 18.45331 36121 ft 447 kts 316°
2026-04-14 14:18 46.34743 18.39354 36122 ft 447 kts 316°
2026-04-14 14:19 46.39402 18.33291 36132 ft 447 kts 316°
2026-04-14 14:19 46.43993 18.27300 36126 ft 447 kts 316°
2026-04-14 14:20 46.48637 18.21212 36125 ft 447 kts 315°
2026-04-14 14:20 46.53220 18.15184 36123 ft 447 kts 315°
2026-04-14 14:21 46.57834 18.09118 36127 ft 447 kts 316°
2026-04-14 14:21 46.62447 18.03038 36132 ft 448 kts 315°
2026-04-14 14:22 46.67058 17.96941 36129 ft 448 kts 315°
2026-04-14 14:22 46.71669 17.90831 36124 ft 448 kts 315°
2026-04-14 14:23 46.76277 17.84720 36128 ft 448 kts 315°
2026-04-14 14:23 46.80883 17.78589 36129 ft 448 kts 315°
2026-04-14 14:24 46.85484 17.72443 36133 ft 448 kts 315°
2026-04-14 14:24 46.90084 17.66283 36122 ft 449 kts 315°
2026-04-14 14:25 46.94684 17.60105 36124 ft 449 kts 315°
2026-04-14 14:25 46.99280 17.53919 36131 ft 449 kts 315°
2026-04-14 14:26 47.03103 17.48769 36122 ft 449 kts 315°
2026-04-14 14:26 47.08446 17.41552 36115 ft 449 kts 315°
2026-04-14 14:27 47.13039 17.35333 36133 ft 449 kts 315°
2026-04-14 14:27 47.16889 17.30120 36129 ft 449 kts 315°
2026-04-14 14:28 47.21475 17.23875 36131 ft 449 kts 315°
2026-04-14 14:28 47.26054 17.17622 36128 ft 449 kts 315°
2026-04-14 14:29 47.30638 17.11353 36131 ft 450 kts 315°
2026-04-14 14:29 47.35217 17.05065 36136 ft 450 kts 315°
2026-04-14 14:30 47.39797 16.98788 36147 ft 449 kts 315°
2026-04-14 14:30 47.44337 16.92537 36146 ft 449 kts 314°
2026-04-14 14:31 47.48900 16.86223 36152 ft 449 kts 314°
2026-04-14 14:31 47.53460 16.79899 36157 ft 450 kts 314°
2026-04-14 14:32 47.57905 16.73409 36148 ft 448 kts 309°
2026-04-14 14:32 47.62032 16.66492 36148 ft 448 kts 309°
2026-04-14 14:33 47.66158 16.59557 36148 ft 448 kts 309°
2026-04-14 14:33 47.70276 16.52611 36153 ft 448 kts 309°
2026-04-14 14:34 47.76446 16.42171 36156 ft 448 kts 309°
2026-04-14 14:35 47.80556 16.35204 36161 ft 448 kts 309°
2026-04-14 14:35 47.84663 16.28220 36151 ft 448 kts 309°
2026-04-14 14:36 47.88769 16.21221 36165 ft 449 kts 309°
2026-04-14 14:36 47.92870 16.14201 36161 ft 449 kts 308°
2026-04-14 14:37 47.96970 16.07174 36167 ft 449 kts 308°
2026-04-14 14:37 48.01063 16.00144 36166 ft 448 kts 308°
2026-04-14 14:38 48.05146 15.93102 36161 ft 448 kts 308°
2026-04-14 14:38 48.09222 15.86057 36167 ft 448 kts 308°
2026-04-14 14:39 48.13293 15.78999 36171 ft 448 kts 308°
2026-04-14 14:39 48.17364 15.71935 36165 ft 448 kts 308°
2026-04-14 14:40 48.21401 15.64904 36172 ft 448 kts 308°
2026-04-14 14:40 48.25459 15.57814 36175 ft 448 kts 308°
2026-04-14 14:41 48.29536 15.50669 36172 ft 448 kts 308°
2026-04-14 14:41 48.33557 15.43611 36167 ft 447 kts 308°
2026-04-14 14:42 48.37600 15.36497 36162 ft 447 kts 308°
2026-04-14 14:42 48.41729 15.29487 36158 ft 448 kts 311°
2026-04-14 14:43 48.46060 15.22735 36159 ft 448 kts 312°
2026-04-14 14:43 48.50424 15.16016 36149 ft 448 kts 311°
2026-04-14 14:44 48.54736 15.09214 36156 ft 449 kts 311°
2026-04-14 14:44 48.59016 15.02355 36144 ft 449 kts 311°
2026-04-14 14:45 48.63302 14.95498 36140 ft 449 kts 311°
2026-04-14 14:45 48.67592 14.88645 36139 ft 449 kts 311°
2026-04-14 14:46 48.71888 14.81762 36130 ft 450 kts 311°
2026-04-14 14:46 48.76182 14.74861 36120 ft 450 kts 311°
2026-04-14 14:47 48.80470 14.67937 36119 ft 450 kts 311°
2026-04-14 14:47 48.84756 14.61001 36117 ft 451 kts 310°
2026-04-14 14:48 48.89044 14.54059 36124 ft 451 kts 310°
2026-04-14 14:48 48.93333 14.47092 36118 ft 451 kts 310°
2026-04-14 14:49 48.97610 14.40111 36116 ft 451 kts 310°
2026-04-14 14:49 49.01893 14.33123 36106 ft 451 kts 310°
2026-04-14 14:50 49.06167 14.26123 36109 ft 451 kts 310°
2026-04-14 14:50 49.10433 14.19108 36117 ft 451 kts 310°
2026-04-14 14:51 49.14694 14.12095 36114 ft 450 kts 310°
2026-04-14 14:51 49.18942 14.05072 36111 ft 450 kts 310°
2026-04-14 14:52 49.23156 13.98086 36108 ft 450 kts 310°
2026-04-14 14:52 49.27424 13.91004 36112 ft 449 kts 310°
2026-04-14 14:53 49.31655 13.83955 36120 ft 449 kts 310°
2026-04-14 14:53 49.35881 13.76897 36124 ft 449 kts 310°
2026-04-14 14:54 49.40095 13.69838 36125 ft 448 kts 310°
2026-04-14 14:54 49.44301 13.62767 36134 ft 448 kts 310°
2026-04-14 14:55 49.48504 13.55699 36139 ft 447 kts 310°
2026-04-14 14:55 49.52697 13.48625 36143 ft 447 kts 310°
2026-04-14 14:56 49.58972 13.37975 36147 ft 448 kts 310°
2026-04-14 14:56 49.63162 13.30850 36151 ft 449 kts 310°
2026-04-14 14:57 49.67350 13.23709 36156 ft 449 kts 310°
2026-04-14 14:57 49.71505 13.16604 36156 ft 449 kts 310°
2026-04-14 14:58 49.75689 13.09439 36137 ft 449 kts 310°
2026-04-14 14:58 49.79867 13.02263 36142 ft 449 kts 310°
2026-04-14 14:59 49.84037 12.95075 36145 ft 448 kts 310°
2026-04-14 14:59 49.88200 12.87874 36144 ft 448 kts 310°
2026-04-14 15:00 49.92355 12.80659 36170 ft 448 kts 310°
2026-04-14 15:00 49.96511 12.73428 36169 ft 449 kts 310°
2026-04-14 15:01 50.00671 12.66183 36176 ft 449 kts 310°
2026-04-14 15:01 50.04832 12.58918 36174 ft 450 kts 310°
2026-04-14 15:02 50.08981 12.51628 36179 ft 450 kts 310°
2026-04-14 15:02 50.13125 12.44322 36184 ft 450 kts 310°
2026-04-14 15:03 50.17250 12.36994 36195 ft 448 kts 307°
2026-04-14 15:03 50.20284 12.28591 36196 ft 445 kts 289°
2026-04-14 15:04 50.22371 12.19501 36199 ft 444 kts 289°
2026-04-14 15:04 50.24456 12.10420 36208 ft 444 kts 289°
2026-04-14 15:05 50.26534 12.01332 36214 ft 444 kts 289°
2026-04-14 15:05 50.28616 11.92259 36215 ft 443 kts 289°
2026-04-14 15:06 50.30692 11.83208 36215 ft 442 kts 289°
2026-04-14 15:06 50.32755 11.74152 36213 ft 441 kts 289°
2026-04-14 15:07 50.34807 11.65095 36209 ft 441 kts 289°
2026-04-14 15:07 50.36852 11.56036 36006 ft 443 kts 289°
2026-04-14 15:08 50.37879 11.51485 35366 ft 442 kts 289°
2026-04-14 15:08 50.38903 11.46945 34743 ft 441 kts 289°
2026-04-14 15:08 50.39919 11.42423 34135 ft 440 kts 289°
2026-04-14 15:08 50.40929 11.37893 33441 ft 440 kts 289°
2026-04-14 15:09 50.41935 11.33359 32761 ft 441 kts 289°
2026-04-14 15:09 50.42945 11.28816 32107 ft 442 kts 288°
2026-04-14 15:09 50.43958 11.24263 31465 ft 443 kts 288°
2026-04-14 15:09 50.44972 11.19694 30836 ft 444 kts 288°
2026-04-14 15:10 50.45986 11.15120 30234 ft 444 kts 288°
2026-04-14 15:10 50.46998 11.10533 29513 ft 445 kts 288°
2026-04-14 15:10 50.48011 11.05943 28809 ft 446 kts 288°
2026-04-14 15:10 50.48684 11.02887 28352 ft 447 kts 287°
2026-04-14 15:11 50.49701 10.98258 27674 ft 450 kts 287°
2026-04-14 15:11 50.50717 10.93602 27014 ft 452 kts 287°
2026-04-14 15:11 50.51733 10.88918 26369 ft 454 kts 287°
2026-04-14 15:11 50.52752 10.84209 25740 ft 456 kts 287°
2026-04-14 15:12 50.53780 10.79478 25121 ft 458 kts 288°
2026-04-14 15:12 50.54840 10.74735 24515 ft 461 kts 288°
2026-04-14 15:12 50.55924 10.69989 23998 ft 461 kts 288°
2026-04-14 15:12 50.57013 10.65257 23461 ft 458 kts 288°
2026-04-14 15:13 50.58091 10.60561 22878 ft 455 kts 288°
2026-04-14 15:13 50.59154 10.55891 22313 ft 452 kts 288°
2026-04-14 15:13 50.60202 10.51249 21759 ft 449 kts 288°
2026-04-14 15:13 50.61239 10.46637 21208 ft 445 kts 288°
2026-04-14 15:14 50.62267 10.42056 20673 ft 442 kts 288°
2026-04-14 15:14 50.63224 10.37477 20146 ft 438 kts 283°
2026-04-14 15:14 50.63725 10.32774 19630 ft 434 kts 274°
2026-04-14 15:14 50.63630 10.28058 19124 ft 430 kts 261°
2026-04-14 15:15 50.62786 10.23566 18623 ft 428 kts 246°
2026-04-14 15:15 50.61520 10.19333 18091 ft 426 kts 245°
2026-04-14 15:15 50.60231 10.15149 17522 ft 424 kts 244°
2026-04-14 15:15 50.58936 10.11003 16977 ft 420 kts 244°
2026-04-14 15:16 50.57643 10.06899 16537 ft 416 kts 244°
2026-04-14 15:16 50.56359 10.02833 16153 ft 414 kts 244°
2026-04-14 15:16 50.55082 9.98781 15775 ft 412 kts 244°
2026-04-14 15:16 50.53815 9.94758 15397 ft 409 kts 244°
2026-04-14 15:17 50.52557 9.90764 15030 ft 406 kts 244°
2026-04-14 15:17 50.51307 9.86795 14667 ft 405 kts 244°
2026-04-14 15:17 50.50063 9.82846 14309 ft 402 kts 244°
2026-04-14 15:17 50.48823 9.78920 13943 ft 400 kts 244°
2026-04-14 15:18 50.47591 9.75021 13550 ft 399 kts 244°
2026-04-14 15:18 50.46356 9.71120 13140 ft 398 kts 244°
2026-04-14 15:18 50.45128 9.67250 12744 ft 394 kts 244°
2026-04-14 15:18 50.43908 9.63425 12355 ft 391 kts 244°
2026-04-14 15:19 50.42692 9.59619 11971 ft 389 kts 243°
2026-04-14 15:19 50.41481 9.55833 11593 ft 387 kts 243°
2026-04-14 15:19 50.40276 9.52067 11247 ft 384 kts 243°
2026-04-14 15:19 50.39082 9.48337 11168 ft 383 kts 243°
2026-04-14 15:20 50.37883 9.44598 11182 ft 385 kts 243°
2026-04-14 15:20 50.36684 9.40852 11184 ft 384 kts 243°
2026-04-14 15:20 50.35484 9.37108 11185 ft 384 kts 243°
2026-04-14 15:20 50.34285 9.33377 11186 ft 384 kts 243°
2026-04-14 15:21 50.33079 9.29642 11187 ft 385 kts 243°
2026-04-14 15:21 50.31867 9.25906 11184 ft 385 kts 243°
2026-04-14 15:21 50.30678 9.22241 11180 ft 366 kts 243°
2026-04-14 15:21 50.29558 9.18796 11181 ft 344 kts 243°
2026-04-14 15:22 50.28505 9.15556 11180 ft 326 kts 243°
2026-04-14 15:22 50.27495 9.12426 11184 ft 320 kts 244°
2026-04-14 15:22 50.26642 9.09215 11184 ft 319 kts 250°
2026-04-14 15:22 50.25898 9.05963 11185 ft 318 kts 250°
2026-04-14 15:23 50.25143 9.02706 11185 ft 318 kts 250°
2026-04-14 15:23 50.24339 8.99484 11185 ft 319 kts 243°
2026-04-14 15:23 50.23033 8.96806 11099 ft 304 kts 226°
2026-04-14 15:23 50.21546 8.94544 10895 ft 293 kts 224°
2026-04-14 15:24 50.20090 8.92394 10704 ft 284 kts 224°
2026-04-14 15:24 50.18660 8.90284 10510 ft 282 kts 224°
2026-04-14 15:24 50.17235 8.88178 10321 ft 282 kts 224°
2026-04-14 15:24 50.15813 8.86073 10122 ft 281 kts 224°
2026-04-14 15:25 50.14400 8.83982 9918 ft 280 kts 224°
2026-04-14 15:25 50.12994 8.81904 9702 ft 278 kts 224°
2026-04-14 15:25 50.11591 8.79836 9489 ft 278 kts 224°
2026-04-14 15:25 50.10182 8.77766 9276 ft 279 kts 224°
2026-04-14 15:26 50.08770 8.75692 9062 ft 280 kts 224°
2026-04-14 15:26 50.07351 8.73606 8852 ft 280 kts 224°
2026-04-14 15:26 50.05931 8.71521 8641 ft 281 kts 224°
2026-04-14 15:26 50.04505 8.69440 8440 ft 282 kts 224°
2026-04-14 15:27 50.03073 8.67352 8260 ft 282 kts 224°
2026-04-14 15:27 50.01638 8.65263 8187 ft 282 kts 224°
2026-04-14 15:27 50.00200 8.63168 8192 ft 283 kts 224°
2026-04-14 15:27 49.98759 8.61070 8193 ft 284 kts 224°
2026-04-14 15:28 49.97317 8.58974 8192 ft 284 kts 224°
2026-04-14 15:28 49.95868 8.56883 8193 ft 284 kts 224°
2026-04-14 15:28 49.94423 8.54789 8193 ft 284 kts 224°
2026-04-14 15:28 49.92984 8.52696 8192 ft 283 kts 224°
2026-04-14 15:29 49.91545 8.50604 8187 ft 284 kts 224°
2026-04-14 15:29 49.90097 8.48506 7901 ft 284 kts 224°
2026-04-14 15:29 49.88651 8.46419 7547 ft 284 kts 224°
2026-04-14 15:29 49.87211 8.44327 7198 ft 284 kts 224°
2026-04-14 15:30 49.85778 8.42222 6832 ft 284 kts 224°
2026-04-14 15:30 49.84339 8.40112 6455 ft 285 kts 224°
2026-04-14 15:30 49.82918 8.38033 6065 ft 284 kts 224°
2026-04-14 15:30 49.81751 8.35631 5677 ft 279 kts 247°
2026-04-14 15:31 49.81057 8.32801 5285 ft 276 kts 253°
2026-04-14 15:31 49.80567 8.30001 4903 ft 270 kts 268°
2026-04-14 15:31 49.80815 8.27189 4512 ft 262 kts 290°
2026-04-14 15:31 49.81425 8.24578 4184 ft 253 kts 293°
2026-04-14 15:32 49.82050 8.22107 4013 ft 239 kts 294°
2026-04-14 15:32 49.82641 8.19786 4017 ft 230 kts 294°
2026-04-14 15:32 49.83227 8.17480 4013 ft 230 kts 294°
2026-04-14 15:32 49.83823 8.15182 4014 ft 230 kts 297°
2026-04-14 15:33 49.84832 8.13336 4012 ft 225 kts 329°
2026-04-14 15:33 49.86300 8.12563 4022 ft 224 kts 351°
2026-04-14 15:33 49.87841 8.12217 4016 ft 224 kts 355°
2026-04-14 15:33 49.89351 8.12580 4011 ft 222 kts 26°
2026-04-14 15:34 49.90584 8.14027 4023 ft 223 kts 42°
2026-04-14 15:34 49.91709 8.15697 4017 ft 224 kts 43°
2026-04-14 15:34 49.92817 8.17392 4011 ft 223 kts 44°
2026-04-14 15:34 49.93918 8.19093 4011 ft 223 kts 44°
2026-04-14 15:35 49.94903 8.20918 4002 ft 216 kts 62°
2026-04-14 15:35 49.95430 8.22988 4014 ft 196 kts 68°
2026-04-14 15:35 49.95876 8.24894 4032 ft 184 kts 67°
2026-04-14 15:35 49.96321 8.26747 3911 ft 183 kts 67°
2026-04-14 15:36 49.96768 8.28592 3697 ft 182 kts 68°
2026-04-14 15:36 49.97215 8.30438 3469 ft 182 kts 68°
2026-04-14 15:36 49.97659 8.32273 3223 ft 181 kts 67°
2026-04-14 15:36 49.98103 8.34107 2975 ft 182 kts 68°
2026-04-14 15:37 49.98545 8.35937 2732 ft 181 kts 68°
2026-04-14 15:37 49.98988 8.37769 2491 ft 180 kts 68°
2026-04-14 15:37 49.99427 8.39591 2236 ft 180 kts 67°
2026-04-14 15:37 49.99864 8.41399 1996 ft 177 kts 68°
2026-04-14 15:38 50.00268 8.43082 1748 ft 156 kts 67°
2026-04-14 15:38 50.00635 8.44607 1548 ft 146 kts 67°
2026-04-14 15:38 50.00984 8.46056 1359 ft 142 kts 66°
2026-04-14 15:38 50.01327 8.47479 1165 ft 140 kts 67°
2026-04-14 15:39 50.01668 8.48898 987 ft 140 kts 66°
2026-04-14 15:39 50.02011 8.50324 811 ft 141 kts 68°
2026-04-14 15:39 50.02355 8.51741 635 ft 139 kts 68°
2026-04-14 15:39 50.02695 8.53149 410 ft 138 kts 68°
2026-04-14 15:40 50.03007 8.54519 332 ft 126 kts 68°
2026-04-14 15:40 50.03252 8.55504 350 ft 71 kts 69°
2026-04-14 15:40 50.03395 8.56110 356 ft 55 kts 70°
2026-04-14 15:40 50.03524 8.56647 360 ft 48 kts 70°
2026-04-14 15:41 50.03634 8.56980 360 ft 28 kts 52°
2026-04-14 15:41 50.03768 8.57172 364 ft 24 kts 39°
2026-04-14 15:41 50.03894 8.57330 361 ft 23 kts 39°
2026-04-14 15:41 50.03985 8.57531 366 ft 27 kts 68°
2026-04-14 15:42 50.04057 8.57835 368 ft 29 kts 70°
2026-04-14 15:42 50.04125 8.58122 370 ft 28 kts 69°
2026-04-14 15:42 50.04192 8.58402 372 ft 27 kts 69°
2026-04-14 15:42 50.04259 8.58678 373 ft 27 kts 70°
2026-04-14 15:43 50.04321 8.58939 375 ft 25 kts 70°
2026-04-14 15:43 50.04379 8.59181 376 ft 24 kts 69°
2026-04-14 15:43 50.04432 8.59405 376 ft 16 kts 69°
2026-04-14 15:43 50.04522 8.59471 374 ft 16 kts 358°
2026-04-14 15:44 50.04641 8.59461 372 ft 17 kts 352°
2026-04-14 15:44 50.04751 8.59414 372 ft 12 kts 340°
2026-04-14 15:44 50.04785 8.59395 372 ft 0 kts 339°
2026-04-14 15:45 50.04825 8.59372 370 ft 13 kts 340°
2026-04-14 15:45 50.04922 8.59372 370 ft 14 kts 358°
2026-04-14 15:46 50.05022 8.59324 366 ft 17 kts 340°
2026-04-14 15:46 50.05077 8.59229 360 ft 11 kts 272°
2026-04-14 15:46 50.05030 8.59191 364 ft 7 kts 154°
2026-04-14 15:46 50.05003 8.59213 364 ft 2 kts 156°
2026-04-14 15:47 50.04998 8.59216 365 ft 0 kts 157°